sat.trackr.live / text

‹ back to catalog

STARLINK-33760

NORAD 63764 · 2025-089P

PAYLOAD ACTIVE UNKNOWN

§ Identity

Operator
Country
US
Launch date
2025-04-29
Launch site
AFETR
Launch vehicle
Mass (kg)
RCS (m²)

Purposes: comms

External: N2YO · Heavens-Above · Gunter

§ Orbital elements

Epoch: 2026-09-20T09:27:23.494752Z

Period
94.27 min
Inclination
43.0023°
Eccentricity
0.0000282
Mean motion
15.27596971 rev/d
Perigee alt
482.8 km
Apogee alt
483.2 km
Semi-major
6,861.1 km
B*
5.6358e-4
RAAN
25.7703°
Arg perigee
223.9154°
Mean anomaly
136.1675°
Rev number
7,873

§ Raw data

STARLINK-337601 63764U 25089P   26263.39402193  .00015287  00000+0  56358-3 0  99922 63764  43.0023  25.7703 0000282 223.9154 136.1675 15.27596971 78738

JSON: /api/v1/satellites/63764 · /tle

For live sub-satellite position, see the globe view (requires WebGL).

§ Visibility from observer

Set your observer location to see the next 7 days of passes ≥ 10°. The values pass through the URL so the page stays shareable.

No JS? Fill the form by hand. The geolocation button needs JavaScript.